Terminal Aerodrome Forecast
Issued by NWS Dallas/Fort Worth, TX

Home | Current Version | Previous Version | Text Only | Print | Product List | Glossary On
Versions: 1 2 3 4 5 6 7 8 9 10 11 12 13 14 15 16 17 18 19 20 21 22 23 24 25 26 27 28 29 30 31 32 33 34 35 36 37
148
FTUS44 KFWD 190902 AAB
TAFACT
TAF AMD
KACT 190902Z 1909/2006 23005KT 6SM BR OVC006
     FM191100 22004KT 3SM BR OVC003
      TEMPO 1911/1915 2SM BR
     FM191600 20010KT P6SM BKN250=

USA.gov is the U.S. government's official web portal to all federal, state and local government web resources and services.